Regional Weather Roundup
Issued by NWS

Home | Current Version | Previous Version | Text Only | Print | Product List | Glossary On
Versions: 1 2 3 4 5 6 7 8 9 10 11 12 13 14 15 16 17 18 19 20 21 22 23 24 25 26 27 28 29 30 31 32 33 34 35 36 37 38 39 40 41 42 43 44 45 46 47 48 49 50
000
ASUS44 KEWX 220711
RWRTX
SOUTH TEXAS REGIONAL WEATHER ROUNDUP
NATIONAL WEATHER SERVICE AUSTIN/SAN ANTONIO TX
100 AM CST SUN JAN 22 2017

NOTE: "FAIR" INDICATED FEW OR NO CLOUDS BELOW 12,000 FEET WITH NO
SIGNIFICANT WEATHER AND/OR OBSTRUCTIONS TO VISIBILITY.

* - THESE STATIONS ARE NOT NWS OR FAA STATIONS...AND ARE NOT SUBJECT
    TO NWS AND FAA QUALITY CONTROL.

TXZ171-172-183>190-220800-
TEXAS HILL COUNTRY AND EDWARDS PLATEAU

CITY           SKY/WX    TMP DP  RH WIND       PRES   REMARKS
JUNCTION       CLEAR     55  26  32 W24G35    29.64F
*LLANO         CLEAR     57  32  38 W14G21    29.62F
BURNET         CLEAR     57  29  34 W16G31      N/A
*HORSESHOE BAY CLEAR     59  30  33 W12G26    29.61R
*KERRVILLE     CLEAR     56  28  34 W22G30    29.67S
*FREDERICKSBRG CLEAR     55  27  34 W21G30    29.64S
*ROCKSPRINGS   CLEAR     52  32  46 W18G24    29.70F
*BOERNE STAGE  MOCLDY    57  27  30 NW15G29   29.66S
*CASTROVILLE   MOCLDY    63  26  24 NW31G39   29.68R
HONDO          PTCLDY    64  30  27 NW32G45   29.67R
*UVALDE        PTCLDY    60  37  43 W21       29.72R
DEL RIO        PTCLDY    60  33  36 W25G32    29.73F
LAUGHLIN AFB   PTCLDY    59  42  52 NW17G24   29.74R
CARRIZO SPRGS  PTCLDY    64  32  29 NW25G48   29.69S
*EAGLE PASS    SUNNY     61  37  41 W15G25    29.75R
$$

TXZ173-191>194-202-209-217>225-228-220800-
CENTRAL AND SOUTH CENTRAL TEXAS

CITY           SKY/WX    TMP DP  RH WIND       PRES   REMARKS
GEORGETOWN     CLOUDY    61  30  31 W24G35    29.56R
AUSTIN/BERGSTM CLOUDY    64  29  26 W22G35    29.57R
AUSTIN/MABRY   CLOUDY    62  30  29 W15G32    29.60R
*AUSTIN/EXEC   CLOUDY    61  30  31 W25G35    29.58R
*LAGO VISTA    CLOUDY    60  29  31 W26G38    29.59R
SAN MARCOS     CLOUDY    63  28  27 W31G49    29.60R
NEW BRAUNFELS  MOCLDY    64  30  27 NW23G40   29.61R
RANDOLPH AFB   MOCLDY    63  27  25 NW30G39   29.61R
PT SAN ANTONIO MOCLDY    64  26  24 NW28G36   29.62R
SAN ANTONIO    MOCLDY    63  26  24 W30G40    29.64R
STINSON FIELD  CLOUDY    66  24  20 NW18G44   29.61S
*PLEASANTON    CLOUDY    65  30  27 W23G38    29.65S
*LA GRANGE     CLOUDY    66  37  33 W13       29.57S
*GIDDINGS      CLOUDY    64  32  29 W18G30    29.59R
*GONZALES      CLOUDY    65  33  29 W18       29.61F
$$

TXZ163>164-176>182-195>201-210>213-226-227-235-220800-
SOUTHEAST TEXAS

CITY           SKY/WX    TMP DP  RH WIND       PRES   REMARKS
COLLEGE STN    CLOUDY    59  49  69 SW9       29.55F
*BRYAN         CLOUDY    58  47  66 S7        29.55F
*CALDWELL      NOT AVBL
*CROCKETT      CLOUDY    55  50  82 S5        29.52F
*BRENHAM       CLOUDY    62  48  60 W6        29.59R
HUNTSVILLE     CLOUDY    62  43  49 W6        29.52F
CONROE         LGT RAIN  60  50  69 CALM      29.56F
HOUSTON BUSH   MOCLDY    58  56  93 S5        29.57F
HOUSTON HOBBY  LGT RAIN  62  52  69 NW3       29.56F
*HOUSTON SW AP CLOUDY    59  55  87 CALM      29.60F
PEARLAND       CLOUDY    61  56  83 CALM      29.59F
HOUSTON HOOKS  CLOUDY    58  54  86 S3        29.56F
ELLINGTON FLD  MOCLDY    61  54  77 NW5       29.59R
SUGAR LAND     CLOUDY    60  53  77 CALM      29.58F
*HOUSTON EXEC  CLOUDY    61  50  67 W3        29.59F
*CLEVELAND MUN   N/A     57  55  91 S3        29.55F
*WHARTON       CLOUDY    63  52  68 CALM      29.62R
*COLUMBUS      CLOUDY    64  39  41 W7        29.60S
*EAGLE LAKE    CLOUDY    66  49  55 W8        29.59R
$$

TXZ214>216-236>238-220800-
THE UPPER TEXAS COAST

CITY           SKY/WX    TMP DP  RH WIND       PRES   REMARKS
*ORANGE        CLOUDY    64  57  78 NW12G18   29.59R
PORT ARTHUR    CLOUDY    63  55  75 NW18G28   29.57R
GALVESTON      CLOUDY    66  52  60 NW18G31   29.58R
ANGLETON       CLOUDY    64  52  64 N7        29.59F
*BAY CITY      PTCLDY    63  51  63 CALM      29.61R
PALACIOS       PTCLDY    60  50  69 NW6       29.61R
$$

TXZ229>234-239>247-220800-
TEXAS COASTAL BEND AND RIO GRANDE PLAINS

CITY           SKY/WX    TMP DP  RH WIND       PRES   REMARKS
VICTORIA       PTCLDY    61  46  57 NW10      29.63R
*BEEVILLE      PTCLDY    63  44  51 NW8       29.67S
ROCKPORT       PTCLDY    65  52  62 NW12      29.64R
*PORT ARANSAS  PTCLDY    67  46  46 N20G28    29.63R
*PORT LAVACA   PTCLDY    60  51  73 CALM      29.63R
*INGLESIDE     PTCLDY    63  48  58 N12G17    29.64R
CORPUS CHRISTI PTCLDY    66  45  46 N17       29.65R
CORPUS NAS     CLEAR     67  50  54 N21       29.63
*ROBSTOWN      PTCLDY    65  45  47 NW12      29.67R
ALICE          PTCLDY    68  39  34 NW18      29.66R
KINGSVILLE NAS CLEAR     66  43  43 NW16G25   29.66R
COTULLA        PTCLDY    66  31  27 NW26G35   29.67F
*FAITH RANCH   PTCLDY    63  39  42 NW17G28   29.70S
LAREDO         PTCLDY    63  40  42 N10       29.73R
$$

TXZ248>255-220800-
DEEP SOUTH TEXAS

CITY           SKY/WX    TMP DP  RH WIND       PRES   REMARKS
BROWNSVILLE    PTCLDY    71  53  52 N17G29    29.59R
PORT ISABEL    PTCLDY    71  46  40 N21G30    29.59R
*SOUTH PADRE   NOT AVBL
HARLINGEN      CLEAR     68  47  46 N21G29    29.61R
*HEBBRONVILLE  CLEAR     63  38  39 N14       29.71R
MCALLEN        CLEAR     72  41  32 N20G30    29.66R
*WESLACO       CLEAR     69  42  36 N17G28    29.63R
FALFURRIAS     PTCLDY    67  38  34 N14       29.67R
EDINBURG       PTCLDY    71  38  29 N18G25    29.63R
*ZAPATA        PTCLDY    65  37  35 N13       29.71R
$$

TXZ213>215-236>238-242>244-246-247-251-254-255-220800-
CMAN STATIONS

STATION/POSITION TIME  TEMP    WIND        PRES    WAVE
                       AIR SEA DIR/SP/G            HT/PER
                 (UTC) (F)     (DEG/KT/KT) (MB)    (FT/S)
SABINE PASS      0648      68  280/  7/ 12 1001.9
SEA RIM ST PARK  0700   64     310/ 16/ 19 1001.6
NORTH JETTY/GLS  0642      64  300/ 22/ 27   N/A
EAGLE POINT      0648      69  330/  3/  8 1001.4
MORGANS POINT    0648      65  310/  7/  9 1001.4
PORT O`CONNOR    0648          330/ 13/ 15 1002.7
PORT ARANSAS     0700   68 64  330/ 14/ 17 1003.2
MALAQUITE BEACH  0648      65  330/ 18/ 22 1003.6
BAFFIN BAY       0648      68  330/ 16/ 20 1003.3
PORT ISABEL      0648      68  350/ 22/ 30 1001.1
$$

GMZ080-GMZ150>470-220800-
OFFSHORE BUOY REPORTS

STATION/POSITION TIME  TEMP    WIND        PRES    WAVE
                       AIR SEA DIR/SP/G            HT/PER
                 (UTC) (F)     (DEG/KT/KT) (MB)    (FT/S)
20 E GALVESTON   0650   68 67  300/ 19/ 25 1001.0    3/ 6
90 E PT ARANSAS  0650   72 73  320/ 16/ 21 1000.7    4/ 7
35 NE PT MANSFLD 0650   71     350/ 29/ 37  999.9    4/ 8
200 E PT ISABEL  0650   75 74  190/ 16/ 19  998.7    6/ 8
$$




USA.gov is the U.S. government's official web portal to all federal, state and local government web resources and services.